Flag for Canada Weather past 2 weeks in Port Coquitlam, British Columbia, Canada

Now
50 °F

Cool.


Feels Like: 49 °F
Forecast: 44 / 54 °F
Wind: 5 mph from South

Location: P. Meadows Coastal Station


UV Index: 3 (Moderate)

Visibility: N/A


Pressure: 29.90 "Hg

Humidity: 82%

Dew point: 45 °F

Location of Port CoquitlamLocation

Historic Weather in Port Coquitlam

°F

Port Coquitlam temperature yesterday

Maximum temperature yesterday: 56 °F (at 3:00 PM)
Minimum temperature yesterday: 44 °F (at 11:00 PM)
Average temperature yesterday: 50 °F

Past Weeks' High & Low Weather Summary

 TemperatureHumidityPressure
High68 °F (Apr 13, 4:00 PM)100% (Apr 14, 6:00 AM)30.34 "Hg (Apr 14, 6:00 AM)
Low35 °F (Apr 14, 6:00 AM)24% (Apr 13, 12:00 PM)29.67 "Hg (Apr 17, 8:00 PM)
Average50 °F74%30.08 "Hg
* Reported Apr 4 4:00 PM — Apr 19 4:00 PM, Port Coquitlam, Weather by CustomWeather, © 2014

Note: Actual official high and low records may vary slightly from our data, if they occured in-between our weather recording intervals... More about our weather records

Advertising

Historic Weather Conditions — Data for Previous 24 hours

 ConditionsComfort  
Time TempWeatherWind HumidityBarometerVisibility
4:00 PM
Apr 19
50 °FCool.6 mph84%29.88 "HgN/A
3:00 PM49 °FCool.6 mph84%29.88 "HgN/A
2:00 PM50 °FCool.6 mph80%29.85 "HgN/A
1:00 PM55 °FCool.6 mph53%29.80 "HgN/A
12:00 PM53 °FCool.6 mph59%29.77 "HgN/A
11:00 AM49 °FCool.5 mph69%29.78 "HgN/A
10:00 AM48 °FCool.7 mph74%29.78 "HgN/A
9:00 AM46 °FCool.5 mph78%29.79 "HgN/A
8:00 AM45 °FQuite cool.3 mph83%29.81 "HgN/A
7:00 AM43 °FQuite cool.2 mph86%29.83 "HgN/A
6:00 AM44 °FQuite cool.1 mph82%29.82 "HgN/A
5:00 AM43 °FQuite cool.1 mph89%29.82 "HgN/A
4:00 AM42 °FQuite cool.1 mph89%29.84 "HgN/A
3:00 AM45 °FQuite cool.1 mph80%29.87 "HgN/A
2:00 AM45 °FQuite cool.1 mph83%29.88 "HgN/A
1:00 AM43 °FQuite cool.1 mph88%29.92 "HgN/A
12:00 AM45 °FCool.1 mph81%29.95 "HgN/A
11:00 PM
Apr 18
44 °FQuite cool.3 mph84%29.98 "HgN/A
10:00 PM46 °FCool.2 mph77%30.01 "HgN/A
9:00 PM47 °FCool.6 mph71%30.01 "HgN/A
8:00 PM52 °FCool.2 mph60%30.03 "HgN/A
7:00 PM54 °FCool.2 mph47%30.04 "HgN/A
6:00 PM55 °FRefreshingly cool.2 mph41%30.05 "HgN/A
5:00 PM55 °FCool.2 mph38%30.06 "HgN/A
Weather by CustomWeather, © 2014

See weather overview